Home   Weather   Weilheim in Oberbayern   Past weeks

Flag for Germany Past Weather in Weilheim in Oberbayern, Bavaria, Germany — Yesterday and Last 2 Weeks

Now
36 °F

Chilly.


Feels Like: 30 °F
Forecast: 26 / 64 °F
Wind: 7 mph from West

Location: Altenstadt Airport

Current Time: Apr 23, 2017 at 8:00:42 am

Latest Report: Apr 23, 2017 at 7:20 am


Visibility: N/A

Pressure: 30.18 "Hg (28.15 "Hg at 560m altitude)

Humidity: 93%

Dew Point: 34 °F

Location of Weilheim in OberbayernLocation

Past Weather in Weilheim in Oberbayern — Graph

°F

Weilheim in Oberbayern Temperature Yesterday

Maximum temperature yesterday: 50 °F (at 10:20 am)
Minimum temperature yesterday: 32 °F (at 3:20 am)
Average temperature yesterday: 42 °F

High & Low Weather Summary for the Past Weeks

 TemperatureHumidityPressure
High68 °F (Apr 9, 4:20 pm)100% (Apr 8, 6:20 am)30.48 "Hg (Apr 8, 6:20 am)
Low21 °F (Apr 21, 6:20 am)28% (Apr 10, 4:20 pm)29.89 "Hg (Apr 17, 5:20 pm)
Average41 °F75%30.16 "Hg
* Reported Apr 8 6:20 am — Apr 23 6:20 am, Weilheim in Oberbayern, Weather by CustomWeather, © 2017

Note: Actual official high and low records may vary slightly from our data, if they occured in-between our weather recording intervals... More about our weather records

Advertising

Weilheim in Oberbayern Weather History for the Previous 24 Hours

Scroll right to see more
 ConditionsComfort  
Time TempWeatherWind HumidityBarometerVisibility
6:20 am
Sun, Apr 23
36 °FChilly.6 mph93%30.18 "HgN/A
5:20 am34 °FChilly.7 mph93%30.18 "HgN/A
4:20 am34 °FChilly.6 mph100%30.18 "HgN/A
3:20 am34 °FChilly.9 mph100%30.18 "HgN/A
2:20 am36 °FChilly.9 mph93%30.18 "HgN/A
1:20 am37 °FChilly.7 mph93%30.18 "HgN/A
12:20 am37 °FChilly.8 mph93%30.18 "HgN/A
11:20 pm
Sat, Apr 22
39 °FChilly.12 mph87%30.15 "HgN/A
10:20 pm41 °FQuite cool.12 mph87%30.15 "HgN/A
9:20 pm41 °FQuite cool.6 mph93%30.15 "HgN/A
8:20 pm43 °FQuite cool.9 mph87%30.15 "HgN/A
7:20 pm45 °FQuite cool.9 mph76%30.15 "HgN/A
6:20 pm46 °FCool.15 mph62%30.15 "HgN/A
5:20 pm48 °FCool.18 mph62%30.15 "HgN/A
4:20 pm48 °FCool.20 mph62%30.15 "HgN/A
3:20 pm48 °FCool.17 mph58%30.15 "HgN/A
2:20 pm48 °FCool.25 mph58%30.15 "HgN/A
1:20 pm46 °FCool.16 mph66%30.18 "HgN/A
12:20 pm50 °FCool.28 mph50%30.18 "HgN/A
11:20 am50 °FCool.23 mph47%30.21 "HgN/A
10:20 am50 °FCool.17 mph40%30.21 "HgN/A
9:20 am46 °FCool.17 mph43%30.21 "HgN/A
8:20 am41 °FQuite cool.7 mph61%30.24 "HgN/A
Weather by CustomWeather, © 2017

See weather overviewHow to use our weather pages